Washington, VA

9:20 AM EST on December 14, 2019 (GMT -0500)
Ronald Reagan Washington National

Weather History for KDCA - October, 2019

Change the Weather History Date:

Wednesday, October 2, 2019

  Actual Average Record
Temperature  
Mean Temperature 86 °F 64 °F  
Max Temperature 98 °F 73 °F 98 °F (2019)
Min Temperature 73 °F 56 °F 33 °F (1899)
Degree Days  
Heating Degree Days 0 3  
Month to date heating degree days 0 6  
Since 1 July heating degree days 0 30  
Cooling Degree Days 21 3  
Month to date cooling degree days 34 6  
Year to date cooling degree days 2029 1519  
Growing Degree Days 36 (Base 50)    
Moisture  
Dew Point 67 °F    
Average Humidity 63    
Maximum Humidity 93    
Minimum Humidity 33    
Precipitation  
Precipitation 0.00 in 0.10 in 1.74 in (1976)
Month to date precipitation 0.00 0.21  
Year to date precipitation 31.03 30.33  
Snow  
Snow 0.00 in 0.00 in - ()
Month to date snowfall 0.0 0.0  
Since 1 July snowfall 0.0 0.0  
Snow Depth 0.00 in    
Sea Level Pressure  
Sea Level Pressure 29.90 in    
Wind  
Wind Speed 8 mph (SW)    
Max Wind Speed 17 mph    
Max Gust Speed 22 mph    
Visibility 10 miles    
Events      
T = Trace of Precipitation, MM = Missing Value Source: NWS Daily Summary

Daily Weather History Graph

Daily Weather History Graph

Search for Another Location

Airport or City:

Astronomy

Oct. 02, 2019 Rise Set
Actual Time 7:04 AM EDT 6:49 PM EDT
Civil Twilight 6:38 AM EDT 7:16 PM EDT
Nautical Twilight 6:07 AM EDT 7:47 PM EDT
Astronomical Twilight 5:36 AM EDT 8:18 PM EDT
Moon 11:25 AM EDT (10/2) 9:44 PM EDT (10/2)
Length of Visible Light 12h 37m
Length of Day
11h 44m
Waxing Crescent, 20% of the Moon is Illuminated
Oct 2
Waxing Crescent
Oct 5
First Quarter
Oct 13
Full
Oct 21
Last Quarter
Oct 27
New

Hourly Weather History & Observations

Time (EDT) Temp. Heat Index Dew Point Humidity Pressure Visibility Wind Dir Wind Speed Gust Speed Precip Events Conditions
12:52 AM 75.9 °F - 68.0 °F 76% 29.95 in 10.0 mi South 8.1 mph - N/A   Mostly Cloudy
1:52 AM 75.0 °F - 68.0 °F 79% 29.94 in 10.0 mi South 6.9 mph - N/A   Mostly Cloudy
2:52 AM 75.0 °F - 69.1 °F 82% 29.93 in 10.0 mi South 9.2 mph - N/A   Mostly Cloudy
3:52 AM 73.9 °F - 69.1 °F 85% 29.93 in 10.0 mi South 8.1 mph - N/A   Mostly Cloudy
4:52 AM 73.9 °F - 69.1 °F 85% 29.93 in 10.0 mi SSW 5.8 mph - N/A   Mostly Cloudy
5:52 AM 73.0 °F - 69.1 °F 87% 29.93 in 10.0 mi SSW 4.6 mph - N/A   Mostly Cloudy
6:52 AM 73.0 °F - 69.1 °F 87% 29.94 in 10.0 mi South 5.8 mph - N/A   Mostly Cloudy
7:52 AM 73.9 °F - 71.1 °F 91% 29.94 in 10.0 mi South 6.9 mph - N/A   Mostly Cloudy
8:52 AM 75.9 °F - 71.1 °F 85% 29.95 in 10.0 mi South 5.8 mph - N/A   Mostly Cloudy
9:52 AM 78.1 °F - 71.1 °F 79% 29.94 in 10.0 mi SSE 9.2 mph - N/A   Scattered Clouds
10:52 AM 82.9 °F 88.0 °F 72.0 °F 69% 29.93 in 10.0 mi South 8.1 mph - N/A   Scattered Clouds
11:52 AM 93.0 °F 95.0 °F 64.9 °F 39% 29.92 in 10.0 mi WNW 9.2 mph - N/A   Mostly Cloudy
12:52 PM 96.1 °F 97.3 °F 63.0 °F 33% 29.90 in 10.0 mi West 6.9 mph - N/A   Scattered Clouds
1:52 PM 96.1 °F 96.9 °F 62.1 °F 32% 29.88 in 10.0 mi West 13.8 mph 18.4 mph N/A   Mostly Cloudy
2:52 PM 95.0 °F 96.0 °F 63.0 °F 34% 29.86 in 10.0 mi NW 9.2 mph - N/A   Mostly Cloudy
3:52 PM 97.0 °F 97.8 °F 62.1 °F 31% 29.84 in 10.0 mi WSW 10.4 mph - N/A   Scattered Clouds
4:52 PM 95.0 °F 96.0 °F 63.0 °F 34% 29.84 in 10.0 mi West 12.7 mph 16.1 mph N/A   Mostly Cloudy
5:52 PM 95.0 °F 97.0 °F 64.0 °F 36% 29.83 in 10.0 mi WSW 12.7 mph - N/A   Mostly Cloudy
6:52 PM 91.0 °F 92.6 °F 64.0 °F 41% 29.84 in 10.0 mi SW 8.1 mph - N/A   Mostly Cloudy
7:52 PM 90.0 °F 91.7 °F 64.9 °F 43% 29.86 in 10.0 mi WSW 5.8 mph - N/A   Scattered Clouds
8:52 PM 88.0 °F 90.3 °F 66.0 °F 48% 29.87 in 10.0 mi WSW 6.9 mph - N/A   Mostly Cloudy
9:52 PM 86.0 °F 88.8 °F 66.9 °F 53% 29.89 in 10.0 mi SW 4.6 mph - N/A   Mostly Cloudy
10:52 PM 82.0 °F 85.5 °F 69.1 °F 65% 29.89 in 10.0 mi South 6.9 mph - N/A   Mostly Cloudy
11:52 PM 80.1 °F 83.8 °F 72.0 °F 76% 29.89 in 10.0 mi SSE 3.5 mph - N/A   Overcast